• EDLH
  • EDLH
  • EDLH
 

Herzlich willkommen


Der Luftsportclub Hamm e.V. betreibt seit über 50 Jahren den Flugplatz Hamm-Lippewiesen in nahezu einmaliger Innenstadtlage. In vier Sportgruppen gehen die mehr als 350 Mitglieder ihren Hobbys Motorflug, Segelflug, Ultraleichtflug und Ballonfahrt nach.

Wir freuen uns auf Ihren Besuch am Flugplatz Hamm – egal ob zu Fuß oder mit dem Flugzeug!

Fliegen lernen


Sie möchten gern Pilot werden? Dieser Traum kann bei uns in Erfüllung gehen!

Der Luftsportclub Hamm e.V. betreibt eine moderne, ständig gewartete Flugzeugflotte und bildet seit vielen Jahren preiswert und erfolgreich Piloten aus.

Wir würden uns freuen, auch Sie bald als neuen Flugschüler bei uns begrüßen zu dürfen.

Mehr zur Ausbildung

Flugplatzwetter

04 °C

EDLH 010000Z AUTO 23008KT 3900 DZ BKN008 OVC013 04/04 Q1013 REDZ

Was ist das?

 

Live-Webcam

Was ist gerade am Flugplatz Hamm los? Finden Sie es heraus - mit unserer Live-Webcam!

 

Kamera öffnen